Regional Weather Roundup
Issued by NWS Northern Indiana

Home | Current Version | Previous Version | Graphics & Text | Print | Product List | Glossary On
Versions: 1 2 3 4 5 6 7 8 9 10 11 12 13 14 15 16 17 18 19 20 21 22 23 24 25 26 27 28 29 30 31 32 33 34 35 36 37 38 39 40 41 42 43 44 45 46 47 48 49 50
000
ASUS43 KIWX 250500
RWRIWX

KIWX WEATHER ROUNDUP
NATIONAL WEATHER SERVICE NORTHERN INDIANA
100 AM EDT SUN SEP 25 2016

NOTE: "FAIR" INDICATES FEW OR NO CLOUDS BELOW 12,000 FEET WITH NO
SIGNIFICANT WEATHER AND/OR OBSTRUCTIONS TO VISIBILITY.

* THESE STATIONS ARE NOT UNDER NWS QUALITY CONTROL. THEY ALSO MAY NOT
  REPORT WEATHER SUCH AS PRECIPITATION OR FOG.

INZ001>027-250600-
NORTHERN INDIANA

CITY           SKY/WX    TMP DP  RH WIND       PRES   REMARKS
SOUTH BEND     CLEAR     64  58  80 SE9       30.17S
GOSHEN         CLEAR     61  55  81 E8        30.18S
ANGOLA*          N/A     57  46  67 E5        30.20S
FORT WAYNE     CLEAR     61  54  77 E7        30.18F
PERU/GRISSOM   CLEAR     65  59  81 E9        30.15R

$$
INZ028>050-250600-
CENTRAL INDIANA

CITY           SKY/WX    TMP DP  RH WIND       PRES   REMARKS
LAFAYETTE      CLEAR     68  64  87 E8        30.13R
MUNCIE*        CLEAR     64  59  83 E7        30.16S
INDIANAPOLIS   CLEAR     72  65  78 E8        30.12S

$$
MIZ043>046-050>051-056>058-064>065-071>073-077>080-250600-
SOUTHWEST LOWER MICHIGAN

CITY           SKY/WX    TMP DP  RH WIND       PRES   REMARKS
BATTLE CREEK   CLEAR     59  53  80 E5        30.22R
BENTON HARBOR  CLEAR     61  56  83 E5        30.16F
COLDWATER*     CLEAR     58  53  83 E5        30.20S
HILLSDALE*     CLEAR     55  52  88 E5        30.21S FOG
HOLLAND        CLEAR     58  52  80 E7        30.19F
GRAND RAPIDS   CLEAR     55  49  80 E9        30.21F
KALAMAZOO      CLEAR     58  52  80 CALM      30.21R
STURGIS*       CLEAR     60  55  82 E5        30.19S
THREE RIVERS*  FAIR      60  56  88 E3        30.20S

$$
OHZ001>008-015>018-024>025-250600-
NORTHWEST OHIO

CITY           SKY/WX    TMP DP  RH WIND       PRES   REMARKS
DEFIANCE       CLEAR     59  52  77 E3        30.20S
FINDLAY        CLEAR     59  50  72 E6        30.19S
TOLEDO EXPRESS CLEAR     54  54 100 CALM      30.21R
TOLEDO METCALF CLEAR     58  54  86 CALM      30.21S
LIMA           CLEAR     57  53  86 E8        30.18F

$$
AND FOR LAKE MICHIGAN COASTAL AND OPEN LAKE BUOY OBSERVATIONS

STATION/POSITION TEMP    WIND        PRES    VSBY  WAVE
                 AIR SEA DIR/SP/G                  HT/PER
                 (F)     (DEG/KT/KT) (MB)    (MI)  (FT/S)
CALUMET HARBOR    69     110/  4/  6 1020.1R
MICHIGAN CITY     67     110/  9/ 11   N/A
BURNS HARBOR      71     120/  9/ 14 1021.0S
SAINT JOSEPH      65      30/  2/  4 1021.3
SOUTH LAKE BUOY   69 72  100/ 16/ 17 1020.6          2/ 4
4 MI NW BRIDGMAN  66 70  100/ 10/ 14 1021.1R         1
MICHIGAN CITY     67 70  120/  8/ 10   N/A           1/ 3

$$
&&




USA.gov is the U.S. government's official web portal to all federal, state and local government web resources and services.